Starlink 33830

operational
NORAD ID: 63587 Int'l Des: 2025-076 Owner: SPXS Country: US Constellation: starlink
LEOCIRCULAR

Starlink 33830について

説明を読み込み中...

リアルタイム位置

3D地球を読み込み中...

次回通過

高度履歴

Altitude vs Time

uPlot chart will show altitude changes over time

軌道要素

1 63587U 25076U 25350.27745160 .00018381 00000-0 67520-3 0 9990
2 63587 43.0005 72.7578 0001225 271.6189 88.4522 15.27609454 39074
Epoch: Dec 16, 2025 • Age: 21 hours

現在のステータス

高度 483.7 km
速度 7.63 km/s
衛星直下点 27.78°N, 72.76°E
打ち上げ日 Apr 14, 2025
運用期間 0.6 years
タイプ internet

技術仕様

分類 Payload
質量 575.00 kg
乾燥質量 530.00 kg
総質量 575.00 kg
長さ 0.30 m
直径 4.10 m
スパン 29.00 m
形状 Box + pan
製造者 SPXS
バスタイプ Starlink V2MO
フェーズステータス In Orbit
所有者/国 SPXS/US

大規模コンステレーション

Loading constellations...